Aurora, CO

6:45 PM MST on February 24, 2017 (GMT -0700)
Buckley Air Force Base

Weather History for KBKF - October, 2012

Change the Weather History Date:

Monday, October 29, 2012

  Actual Average Record
Temperature  
Mean Temperature 53 °F -  
Max Temperature 64 °F 54 °F 80 °F (2003)
Min Temperature 42 °F 30 °F 17 °F (2002)
Degree Days  
Heating Degree Days 12    
Growing Degree Days 3 (Base 50)    
Moisture  
Dew Point 31 °F    
Average Humidity 47    
Maximum Humidity 61    
Minimum Humidity 28    
Precipitation  
Precipitation 0.00 in - - ()
Sea Level Pressure  
Sea Level Pressure 30.03 in    
Wind  
Wind Speed 9 mph (SSW)    
Max Wind Speed 13 mph    
Max Gust Speed -    
Visibility 10 miles    
Events      
Averages and records for this station are not official NWS values.
T = Trace of Precipitation, MM = Missing Value Source: NWS Daily Summary

Daily Weather History Graph

Daily Weather History Graph

Search for Another Location

Airport or City:

Trip Planner

Search our weather history database for the weather conditions in past years. The results will help you decide how hot, cold, wet, or windy it might be!

Date:

Astronomy

Oct. 29, 2012 Rise Set
Actual Time 7:24 AM MDT 5:59 PM MDT
Civil Twilight 6:56 AM MDT 6:27 PM MDT
Nautical Twilight 6:25 AM MDT 6:59 PM MDT
Astronomical Twilight 5:53 AM MDT 7:30 PM MDT
Moon 5:53 PM MDT (10/29) 7:17 AM MDT (10/29)
Length of Visible Light 11h 30m
Length of Day
10h 35m
Full, 100% of the Moon is Illuminated
Oct 29
Full
Oct 29
Full
Nov 6
Last Quarter
Nov 13
New
Nov 20
First Quarter

Hourly Weather History & Observations

Time (MDT) Temp. Windchill Dew Point Humidity Pressure Visibility Wind Dir Wind Speed Gust Speed Precip Events Conditions
12:55 AM 42.8 °F 37.5 °F 28.4 °F 57% 30.02 in 10.0 mi SSW 9.2 mph - N/A   Partly Cloudy
1:55 AM 42.8 °F 36.6 °F 28.4 °F 57% 30.01 in 10.0 mi South 11.5 mph - N/A   Partly Cloudy
2:55 AM 42.8 °F 37.0 °F 26.6 °F 53% 30.02 in 10.0 mi South 10.4 mph - N/A   Partly Cloudy
3:55 AM 42.8 °F 37.0 °F 26.6 °F 53% 30.01 in 10.0 mi South 10.4 mph - N/A   Partly Cloudy
4:55 AM 42.8 °F 37.0 °F 26.6 °F 53% 30.03 in 10.0 mi South 10.4 mph - N/A   Partly Cloudy
5:55 AM 42.8 °F 37.0 °F 28.4 °F 57% 30.05 in 10.0 mi South 10.4 mph - N/A   Scattered Clouds
6:55 AM 42.8 °F 38.0 °F 28.4 °F 57% 30.05 in 10.0 mi South 8.1 mph - N/A   Mostly Cloudy
7:55 AM 46.4 °F 42.4 °F 30.2 °F 53% 30.06 in 70.0 mi South 8.1 mph - N/A   Mostly Cloudy
8:55 AM 48.2 °F - 32.0 °F 54% 30.09 in 70.0 mi SSW 11.5 mph - N/A   Mostly Cloudy
9:55 AM 55.4 °F - 32.0 °F 41% 30.06 in 70.0 mi SSW 8.1 mph - N/A   Scattered Clouds
10:55 AM 60.8 °F - 28.4 °F 29% 30.05 in 70.0 mi SSW 9.2 mph - N/A   Scattered Clouds
11:55 AM 62.6 °F - 30.2 °F 30% 30.04 in 70.0 mi WSW 5.8 mph - N/A   Scattered Clouds
12:55 PM 64.4 °F - 30.2 °F 28% 30.02 in 70.0 mi WSW 5.8 mph - N/A   Mostly Cloudy
1:55 PM 64.4 °F - 32.0 °F 30% 30.00 in 70.0 mi West 6.9 mph - N/A   Mostly Cloudy
2:55 PM 64.4 °F - 32.0 °F 30% 29.99 in 70.0 mi NNW 11.5 mph - N/A   Mostly Cloudy
3:55 PM 60.8 °F - 32.0 °F 34% 30.01 in 70.0 mi NNW 5.8 mph - N/A   Mostly Cloudy
4:55 PM 59.0 °F - 35.6 °F 42% 30.01 in 70.0 mi ESE 4.6 mph - N/A   Mostly Cloudy
5:55 PM 55.4 °F - 35.6 °F 47% 30.02 in 25.0 mi ESE 5.8 mph - N/A   Mostly Cloudy
6:55 PM 50.0 °F - 33.8 °F 54% 30.06 in 25.0 mi South 6.9 mph - N/A   Mostly Cloudy
7:55 PM 50.0 °F - 32.0 °F 50% 30.06 in 25.0 mi South 8.1 mph - N/A   Scattered Clouds
8:55 PM 48.2 °F - 32.0 °F 54% 30.06 in 25.0 mi SSW 6.9 mph - N/A   Scattered Clouds
9:55 PM 46.4 °F 40.7 °F 32.0 °F 57% 30.04 in 25.0 mi South 12.7 mph - N/A   Partly Cloudy
10:55 PM 46.4 °F 41.1 °F 32.0 °F 57% 30.03 in 25.0 mi South 11.5 mph - N/A   Partly Cloudy
11:55 PM 44.6 °F 39.2 °F 32.0 °F 61% 30.03 in 25.0 mi South 10.4 mph - N/A   Partly Cloudy